Regional Weather Roundup
Issued by NWS

Home | Current Version | Previous Version | Text Only | Print | Product List | Glossary Off
Versions: 1 2 3 4 5 6 7 8 9 10 11 12 13 14 15 16 17 18 19 20 21 22 23 24 25 26 27 28 29 30 31 32 33 34 35 36 37 38 39 40 41 42 43 44 45 46 47 48 49 50

000
ASUS42 KTBW 241316
RWRFL
FLORIDA REGIONAL WEATHER ROUNDUP
NATIONAL WEATHER SERVICE TAMPA BAY RUSKIN FL
900 AM EDT SUN MAY 24 2015

NOTE: "FAIR" INDICATES FEW OR NO CLOUDS BELOW 12,000 FEET WITH NO
SIGNIFICANT WEATHER AND/OR OBSTRUCTIONS TO VISIBILITY.


FLZ001>010-012>015-112-114-115-241400-
PANHANDLE FLORIDA

CITY           SKY/WX    TMP DP  RH WIND       PRES   REMARKS
PENSACOLA      CLOUDY    76  74  93 E10       30.16S
PENSACOLA NAS  PTSUNNY   82  75  79 SE18G26   30.14F
CRESTVIEW      PTSUNNY   77  70  79 E10G17    30.20F
DUKE FIELD     FAIR      77  70  79 SE9G17    30.18S
VALPARAISO     MOSUNNY   77  72  83 E15G21    30.18S
MARY ESTHER    PTSUNNY   76  71  83 E15G25    30.16  THUNDER
TRI COUNTY     CLOUDY    74  69  85 E8        30.24S
PANAMA CITY    FAIR      77  70  79 E12       30.21R
TYNDALL AFB    SUNNY     77  71  82 E8        30.20F
APALACHICOLA   CLOUDY    83  73  72 SE12G21   30.21S

STATION/POSITION SKY/WX   TEMP    WIND        PRES    WAVE   SWELL
                          AIR SEA DIR/SP/G            HT/PER HT/PER
                          (F)     (DEG/KT/KT) (MB)    (FT/S) (FT/S)
30.1N   87.6W              80 80  130/ 16/ 19 1019.4F   3/ 5
29.2N   88.2W              80 80  120/ 16/ 19 1020.0R   4/ 6
28.8N   86.0W              80 80  120/ 16/ 19 1021.3R   4/ 6
PANAMA CITY BEAC           74 79   90/ 10/ 14 1022.5R
CAPE SAN BLAS    NOT AVBL
TOWER C                    78     100/ 18/ 20 1022.6F
28.5N   84.5W              80 80  110/ 17/ 19 1021.8S   4/ 6

$$
FLZ011-016>038-118-127-128-134-139-239-241400-
NORTH FLORIDA

CITY           SKY/WX    TMP DP  RH WIND       PRES   REMARKS
MARIANNA       PTSUNNY   76  71  85 E9G20     30.23F
TALLAHASSEE    PTSUNNY   78  68  71 E14       30.25S
PERRY          SUNNY     77  69  78 E8        30.26S
CROSS CITY       N/A     78  69  73 E8        30.24S
LAKE CITY      FAIR      75  68  78 E13G20    30.27S
GAINESVILLE    SUNNY     77  67  71 E14       30.26R
MAYPORT NAS    SUNNY     80  64  58 E14       30.29R
JACKSONVILLE   MOSUNNY   77  64  64 E14       30.28S
JAX NAS        MOSUNNY   81  64  56 E16       30.28S
JAX CRAIG      SUNNY     78  63  59 E14       30.29R
JAX CECIL      MOSUNNY   77  66  69 NE13G21   30.28R
FERNANDINA BEA FAIR      82  64  54 E14       30.28S
ST AUGUSTINE   SUNNY     78  66  66 E14       30.29R

STATION/POSITION SKY/WX   TEMP    WIND        PRES    WAVE   SWELL
                          AIR SEA DIR/SP/G            HT/PER HT/PER
                          (F)     (DEG/KT/KT) (MB)    (FT/S) (FT/S)
SHELL POINT                75      90/  6/ 11   N/A
KEATON BEACH               76      90/ 11/ 14 1024.2R
CEDAR KEY                  76      90/ 17/ 19 1024.2R
FERNANDINA                 76 79   80/  4/ 11 1024.9R
30.7N   81.3W                 77                N/A     5/ 7
MAYPORT                    76 77   90/ 11/ 14 1025.5R
31.4N   80.9W              75 75   80/ 10/ 10 1026.6S   4/ 7   3/ 7
ST AUGUSTINE               76 76   70/ 13/ 14 1026.0R

$$
FLZ040-043>046-052-053-057-058-063-144-241400-
INTERIOR CENTRAL FLORIDA

CITY           SKY/WX    TMP DP  RH WIND       PRES   REMARKS
OCALA          SUNNY     73  66  78 NE7       30.25S
THE VILLAGES     N/A     79  72  78 NE13      30.15R
LEESBURG       SUNNY     81  69  67 E9G18     30.25R
SANFORD        MOSUNNY   81  71  71 E12       30.24R
ORLANDO EXEC   PTSUNNY   81  71  71 E9        30.23S
ORLANDO INTL   MOSUNNY   81  73  76 E14       30.23R
WINTER HAVEN   MOSUNNY   81  73  76 E12       30.23S
LAKELAND       PTSUNNY   79  73  83 E10       30.22S
BARTOW         MOSUNNY   79  73  83 E10       30.22S
OKEECHOBEE     MOSUNNY   79  73  83 CALM      30.20S

$$
FLZ041-047-054-059-064-141-147-241400-
EAST CENTRAL FLORIDA

CITY           SKY/WX    TMP DP  RH WIND       PRES   REMARKS
ORMOND BEACH   SUNNY     79  68  69 E12       30.25R
DAYTONA BEACH  MOSUNNY   80  69  69 E12       30.26R
DELAND           N/A     79  70  73 NE10      30.26R
NEW SMYRNA BEA MOSUNNY   81  70  69 E7        30.26R
JFK SPACE CTR  MOSUNNY   81  72  74 E10       30.22R
TITUSVILLE     PTSUNNY   81  75  83 E17G23    30.23R
PATRICK AFB    MOSUNNY   79  75  87 E14       30.21R
MELBOURNE      MOSUNNY   80  71  74 E10       30.21S
VERO BEACH     MOSUNNY   84  71  65 E12       30.20S
FT PIERCE      MOSUNNY   83  72  69 E12       30.20R
STUART         PTSUNNY   81  68  65 SE12      30.20

STATION/POSITION SKY/WX   TEMP    WIND        PRES    WAVE   SWELL
                          AIR SEA DIR/SP/G            HT/PER HT/PER
                          (F)     (DEG/KT/KT) (MB)    (FT/S) (FT/S)
28.5N   80.2W              79 80   70/ 14/ 16 1023.4R
28.9N   78.5W              78 80   70/ 12/ 14 1023.8F
TRIDENT PIER               80 82   60/ 10/ 14 1023.7R
28.4N   80.5W                 80                N/A     3/ 8
27.5N   80.2W                 82                N/A     4/ 8

$$
FLZ050-056-061-142-242-148-248-149-249-151-251-155-255-
160-260-241400-
WEST CENTRAL FLORIDA

CITY           SKY/WX    TMP DP  RH WIND       PRES   REMARKS
CRYSTAL RIVER  FAIR      79  70  73 E12G18    30.23S
INVERNESS      FAIR      79  72  78 E5        30.24S
BROOKSVILLE    SUNNY     79  72  79 E14       30.23S
CLEARWATER     MOSUNNY   78  74  87 E10       30.20S
TAMPA INTL     MOSUNNY   79  71  76 VRB7      30.21S
TAMPA EXEC     SUNNY     81  72  74 E9        30.22R
PLANT CITY     MOSUNNY   81  75  83 E9G16     30.23R
MACDILL AFB    SUNNY     79  76  89 E14       30.19S
PETER O KNIGHT MOSUNNY   81  73  78 E13       30.21R
ST PETERSBURG  SUNNY     79  74  84 E17       30.19R
SARASOTA       SUNNY     80  73  79 E13       30.17S
VENICE         FAIR      81  73  78 E12       30.19R

STATION/POSITION SKY/WX   TEMP    WIND        PRES    WAVE   SWELL
                          AIR SEA DIR/SP/G            HT/PER HT/PER
                          (F)     (DEG/KT/KT) (MB)    (FT/S) (FT/S)
CEDAR KEY                  76      90/ 17/ 19 1024.2R
28.5N   84.5W              80 80  110/ 17/ 19 1021.8S   4/ 6
27.3N   84.2W                 81                N/A     4/ 5
CLEARWATER BEACH           76 84   60/  9/ 12 1022.6R
MIDDLE TAMPA BAY           77      90/ 15/ 17 1022.4R
VENICE                     79 84   70/ 10/ 12 1021.7R

$$
FLZ066-069-070-075>078-162-262-165-265-241400-
SOUTHWEST FLORIDA AND KEYS

CITY           SKY/WX    TMP DP  RH WIND       PRES   REMARKS
PUNTA GORDA    SUNNY     79  74  84 E10       30.20S
FT MYERS       SUNNY     80  74  81 E7        30.17R
SOUTHWEST INTL SUNNY     80  73  79 E12       30.17S
NAPLES         MOSUNNY   76  72  87 E10       30.16R
MARCO ISLAND     N/A     79  72  78 E7        30.16R
IMMOKALEE      SUNNY    N/A N/A N/A E8        30.18R
MARATHON       MOSUNNY   84  74  71 E12G18    30.14R
KEY WEST NAS   PTSUNNY   84  73  69 E15       30.13S
KEY WEST INTL  MOSUNNY   83  74  74 E16       30.14R

STATION/POSITION SKY/WX   TEMP    WIND        PRES    WAVE   SWELL
                          AIR SEA DIR/SP/G            HT/PER HT/PER
                          (F)     (DEG/KT/KT) (MB)    (FT/S) (FT/S)
VENICE                     79 84   70/ 10/ 12 1021.7R
NAPLES                     77 84   60/  4/  8 1021.0R
26.0N   85.6W              81 82  110/ 14/ 16 1019.5F   3/ 5
DRY TORTUGAS               82      90/ 14/ 15 1019.6R
NW FL BAY                  81      80/ 11/ 13 1020.8
SAND KEY                   81     100/ 18/ 20 1020.1R
SOMBRERO KEY               82      90/ 17/ 18 1021.1R
LONG KEY                   82 84  100/ 13/ 15 1021.6R
MOLASSES REEF              81 82  100/ 17/ 19 1020.8R

$$
FLZ067-068-071>074-168-172>174-241400-
SOUTHEAST FLORIDA

CITY           SKY/WX    TMP DP  RH WIND       PRES   REMARKS
W PALM BEACH   MOSUNNY   82  70  66 E12       30.19R
FT LAUDER-EXEC MOSUNNY   82  32  16 E13       30.18R
FT LAUDERDALE  PTSUNNY   82  73  74 E16       30.17R
POMPANO BEACH  MOSUNNY   83  71  67 E12       30.18R
PEMBROKE PINES PTSUNNY   82  71  69 E12       30.18R
OPA LOCKA      MOSUNNY   83  72  69 E13       30.17R
MIAMI          PTSUNNY   84  71  65 E14       30.16R
WEST KENDALL   SUNNY     85  72  65 SE13      30.16R
HOMESTEAD      NOT AVBL

STATION/POSITION SKY/WX   TEMP    WIND        PRES    WAVE   SWELL
                          AIR SEA DIR/SP/G            HT/PER HT/PER
                          (F)     (DEG/KT/KT) (MB)    (FT/S) (FT/S)
PORT EVERGLADES            81      80/  9/ 12 1021.9R
VIRGINIA KEY               82 84  100/ 10/ 13 1020.8R
LAKE WORTH                 80 82  100/ 10/ 13 1021.6R
SETTLEMENT POINT           81     100/ 13/ 15 1023.1R

$$



USA.gov is the U.S. government's official web portal to all federal, state and local government web resources and services.